Home   Weather   Leerdam   Past weeks

Flag for Netherlands Past Weather in Leerdam, Netherlands — Yesterday and Last 2 Weeks

Now
31 °F

Overcast.


Feels Like: 31 °F
Forecast: 26 / 38 °F
Wind: 1 mph from North

Location: De Bilt

Current Time: Dec 3, 2016 at 8:00:47 am

Latest Report: Dec 3, 2016 at 7:00 am


Visibility: 4 mi

Pressure: 30.30 "Hg

Humidity: 99%

Dew Point: 31 °F

Location of LeerdamLocation

Past Weather in Leerdam — Graph

°F

Leerdam Temperature Yesterday

Maximum temperature yesterday: 49 °F (at 12:00 am)
Minimum temperature yesterday: 29 °F (at 11:00 pm)
Average temperature yesterday: 43 °F

High & Low Weather Summary for the Past Weeks

 TemperatureHumidityPressure
High57 °F (Nov 21, 2:00 pm)100% (Dec 2, 10:00 pm)30.60 "Hg (Dec 2, 10:00 pm)
Low20 °F (Nov 29, 7:00 am)45% (Nov 25, 1:00 pm)29.06 "Hg (Nov 20, 12:00 pm)
Average41 °F85%30.04 "Hg
* Reported Nov 18 6:00 am — Dec 3 6:00 am, Leerdam, Weather by CustomWeather, © 2016

Note: Actual official high and low records may vary slightly from our data, if they occured in-between our weather recording intervals... More about our weather records

Advertising

Leerdam Weather History for the Previous 24 Hours

Scroll right to see more
 ConditionsComfort  
Time TempWeatherWind HumidityBarometerVisibility
6:00 am
Sat, Dec 3
29 °FOvercast.1 mph98%30.29 "Hg7 mi
5:00 am29 °FOvercast.1 mph97%30.29 "Hg8 mi
4:00 am28 °FOvercast.1 mph98%30.29 "Hg7 mi
3:00 am26 °FClear.1 mph97%30.29 "Hg7 mi
2:00 am26 °FClear.1 mph98%30.29 "Hg1 mi
1:00 am28 °FClear.1 mph96%30.29 "Hg3 mi
12:00 am28 °FClear.1 mph98%30.29 "Hg1 mi
11:00 pm
Fri, Dec 2
29 °FClear.1 mph98%30.28 "Hg4 mi
10:00 pm30 °FClear.1 mph100%30.28 "Hg0 mi
9:00 pm31 °FClear.1 mph98%30.28 "Hg1 mi
8:00 pm32 °FPassing clouds.1 mph97%30.28 "Hg1 mi
7:00 pm34 °FFog.2 mph97%30.26 "Hg4 mi
6:00 pm36 °FPassing clouds.2 mph98%30.26 "Hg7 mi
5:00 pm39 °FPassing clouds.1 mph95%30.25 "Hg8 mi
4:00 pm45 °FOvercast.2 mph80%30.24 "Hg11 mi
3:00 pm47 °FOvercast.2 mph78%30.24 "Hg13 mi
2:00 pm47 °FLow clouds.3 mph82%30.24 "Hg12 mi
1:00 pm48 °FOvercast.3 mph85%30.24 "Hg16 mi
12:00 pm47 °FLow clouds.3 mph89%30.24 "Hg14 mi
11:00 am47 °FRain. Low clouds.2 mph94%30.24 "Hg3 mi
10:00 am47 °FLight rain. Low clouds.3 mph94%30.23 "Hg5 mi
9:00 am47 °FOvercast.2 mph94%30.22 "Hg7 mi
8:00 am46 °FLow clouds.2 mph95%30.21 "Hg4 mi
Weather by CustomWeather, © 2016

See weather overviewHow to use our weather pages